[[{"header":{"parameterUnit":"m.s-1","parameterCategory":1,"la1":30.2991,"la2":30.254,"lo1":-89.0895,"lo2":-89.0444,"dy":0.0017,"dx":0.0017,"nx":28,"ny":28,"refTime":"2025-04-08T21:00:00:Z","depth":0,"parameterNumber":2,"parameterNumberName":"U-component_of_WINDS"},"data":[0,0,0,0,0,0,0,0,0,0,0,0,0,0,0,0,0,0,0,0,0,0,0,0,0,0,0,0,0,0,0,0,0,0,0,0,0,0,0,0,0,0,0,0,0,0,0,0,0,0,0,0,0,0,0,0,0,0,1.1475,1.1475,0,1.15,1.15,1.15,1.1454,1.1452,1.1451,1.1449,1.1477,1.148,1.1482,0,0,0,0,0,0,0,0,0,0,0,0,0,1.1386,1.1388,1.1475,1.1475,1.1475,1.15,1.15,1.15,1.1454,1.1452,1.145,1.1448,1.1477,1.1479,1.1482,0,0,0,0,0,0,0,0,0,0,0,0,0,1.142,1.1389,1.1475,1.1455,1.1453,1.15,1.15,1.1501,1.1454,1.1452,1.145,1.1447,1.1476,1.1479,1.1482,1.155,0,0,1.1493,1.1494,0,0,0,0,0,0,0,0,1.1418,1.1423,1.1458,1.1456,1.1455,1.1471,1.1479,1.1517,1.1455,1.1454,1.1449,1.1446,1.1477,1.148,1.149,1.1551,1.1552,1.1493,1.1495,1.1496,1.1497,0,0,0,0,0,0,0,1.1415,1.1422,1.1485,1.1458,1.1456,1.1445,1.1447,1.1486,1.1479,1.1454,1.1451,1.1454,1.1476,1.1487,1.1491,1.1553,1.1493,1.1496,1.1498,1.1499,1.1666,1.1668,0,0,0,0,0,0,1.1415,1.142,1.1484,1.1485,1.143,1.1448,1.1451,1.1468,1.1478,1.1477,1.1456,1.1452,1.1483,1.1487,1.1492,1.1569,1.1496,1.1499,1.1501,1.1664,1.1666,1.1669,0,0,0,0,0,0,1.1414,1.1422,1.1483,1.1452,1.1459,1.1452,1.1472,1.147,1.1481,1.148,1.1478,1.1469,1.1481,1.1487,1.1535,1.1569,1.1501,1.1504,1.1661,1.1664,1.1668,1.1725,0,0,0,0,0,0,1.1411,1.1421,1.1447,1.1453,1.146,1.1526,1.1475,1.1472,1.1487,1.1481,1.1491,1.1491,1.148,1.153,1.1538,1.1572,1.1506,1.1658,1.1662,1.1667,1.172,1.173,1.1739,0,0,0,0,0,1.1408,1.1464,1.1449,1.1457,1.1493,1.1528,1.1532,1.1518,1.149,1.1515,1.1513,1.149,1.1564,1.1535,1.1544,1.158,1.1655,1.1661,1.1666,1.1716,1.1728,1.1738,0,0,0,0,0,0,1.1465,1.1464,1.1448,1.1506,1.1517,1.152,1.1552,1.1532,1.1552,1.1547,1.1528,1.1531,1.1582,1.1586,1.1554,1.1643,1.1605,1.1612,1.1639,1.1651,1.166,1.1658,1.1509,0,0,0,0,0,1.1484,1.1512,1.151,1.1562,1.1568,1.1559,1.1574,1.1561,1.1572,1.1577,1.1579,1.1592,1.1617,1.1634,1.1658,1.172,1.172,1.1749,1.1758,1.1766,1.1772,1.1802,1.1814,1.1687,1.1687,1.1687,0,0,1.1524,1.1527,1.1546,1.1573,1.158,1.1609,1.1564,1.1597,1.1618,1.1583,1.1627,1.1629,1.1641,1.1695,1.1719,1.17,1.1807,1.1773,1.1779,1.1781,1.1809,1.1821,1.1832,1.1691,1.169,1.169,0,0,1.1611,1.1617,1.1659,1.1666,1.1676,1.1669,1.1679,1.1684,1.1683,1.1727,1.17,1.1725,1.177,1.1778,1.1789,1.1875,1.1854,1.1883,1.1933,1.1962,1.1972,1.1981,1.201,1.202,1.189,1.189,1.189,0,1.166,1.1702,1.1684,1.1718,1.173,1.1696,1.1738,1.1746,1.1764,1.1773,1.1751,1.1804,1.181,1.1864,1.1885,1.1895,1.1905,1.1882,1.1972,1.1981,1.1988,1.2016,1.2027,1.1893,1.1893,1.1893,1.1892,0,1.176,1.179,1.1823,1.1838,1.1854,1.1892,1.1879,1.1896,1.1882,1.1877,1.192,1.1926,1.1948,1.196,1.1948,1.2012,1.1999,1.1975,1.1935,1.2004,1.2029,1.204,1.1898,1.1897,1.1896,1.1895,0,0,1.1887,1.1888,1.19,1.1905,1.1912,1.1935,1.1971,1.1991,1.2005,1.2018,1.2047,1.2083,1.206,1.2071,1.2059,1.2085,1.215,1.2057,1.2057,1.2072,1.2218,1.2236,1.2248,1.2135,1.2137,1.2139,1.2217,0,1.1972,1.2031,1.2014,1.2074,1.21,1.2066,1.2097,1.2104,1.21,1.2121,1.2116,1.2142,1.211,1.2116,1.214,1.2137,1.2178,1.2131,1.2161,1.2162,1.2158,1.2262,1.2281,1.2355,1.2227,1.2228,1.2229,0,1.208,1.2093,1.2155,1.2154,1.2164,1.2192,1.2207,1.2228,1.2235,1.223,1.2241,1.2222,1.2255,1.2215,1.2261,1.2229,1.224,1.224,1.2242,1.2244,1.22,1.2265,1.2378,1.2389,1.2245,1.2244,1.2243,0,1.2163,1.2197,1.2238,1.2243,1.2244,1.2263,1.2265,1.2269,1.2281,1.2294,1.2302,1.232,1.233,1.2344,1.2329,1.2302,1.2376,1.2336,1.2372,1.2372,1.2389,1.2389,1.2504,1.2398,1.2398,1.2398,1.2398,0,1.2259,1.2298,1.2274,1.2299,1.2341,1.232,1.2362,1.2359,1.2362,1.2386,1.2359,1.2382,1.2362,1.2382,1.2372,1.2409,1.2415,1.2411,1.2407,1.2413,1.2413,1.2419,1.2414,1.2401,1.24,1.24,1.2399,0,1.236,1.2345,1.2387,1.2382,1.2382,1.2413,1.2409,1.2431,1.2424,1.2453,1.2459,1.2447,1.247,1.2457,1.2481,1.2473,1.2522,1.2512,1.2519,1.2516,1.2552,1.2549,1.2676,1.2691,1.2576,1.2577,1.2578,0,1.2422,1.245,1.2447,1.246,1.2462,1.2484,1.2495,1.2474,1.2487,1.2494,1.2516,1.2535,1.255,1.2587,1.2581,1.2598,1.2588,1.2631,1.259,1.2594,1.2587,1.2585,1.2586,1.2639,1.2641,1.2642,1.2643,0,1.2533,1.2523,1.254,1.2553,1.2566,1.2576,1.2584,1.2596,1.2575,1.259,1.2612,1.2623,1.2645,1.2664,1.2678,1.2679,1.2657,1.2655,1.2664,1.267,1.2672,1.2669,1.254,1.2653,1.2652,1.2651,1.265,1.265,1.2615,1.2637,1.2637,1.2656,1.2659,1.2665,1.2685,1.2678,1.2695,1.2711,1.2698,1.2723,1.2725,1.2741,1.2745,1.2764,1.2746,1.276,1.2763,1.2767,1.2771,1.2669,1.2767,1.2766,1.2766,1.2766,1.2766,0,1.2723,1.272,1.2737,1.2747,1.2761,1.2737,1.2743,1.2756,1.2778,1.2782,1.2796,1.2819,1.2837,1.283,1.2846,1.2862,1.2852,1.2867,1.2865,1.2865,1.2787,1.2776,1.2874,1.2874,1.2874,1.2874,1.2874,1.2874,1.2781,1.2816,1.2806,1.2842,1.2839,1.2862,1.2867,1.2873,1.2876,1.2902,1.2916,1.2911,1.291,1.2924,1.2939,1.2937,1.2943,1.2961,1.2955,1.2882,1.2871,1.2861,1.2851,1.2963,1.2963,1.3032,1.3032,1.3033]},{"header":{"parameterUnit":"m.s-1","parameterCategory":1,"la1":30.2991,"la2":30.254,"lo1":-89.0895,"lo2":-89.0444,"dy":0.0017,"dx":0.0017,"nx":28,"ny":28,"refTime":"2025-04-08T21:00:00:Z","depth":0,"parameterNumber":3,"parameterNumberName":"V-component_of_WINDS"},"data":[0,0,0,0,0,0,0,0,0,0,0,0,0,0,0,0,0,0,0,0,0,0,0,0,0,0,0,0,0,0,0,0,0,0,0,0,0,0,0,0,0,0,0,0,0,0,0,0,0,0,0,0,0,0,0,0,0,0,3.1644,3.1644,0,3.1622,3.1622,3.1621,3.1554,3.1553,3.1551,3.155,3.1527,3.1528,3.1529,0,0,0,0,0,0,0,0,0,0,0,0,0,3.1627,3.1627,3.1644,3.1644,3.1643,3.1622,3.1622,3.1621,3.1555,3.1553,3.1551,3.1549,3.1527,3.1528,3.1529,0,0,0,0,0,0,0,0,0,0,0,0,0,3.1622,3.1627,3.1644,3.1608,3.1604,3.1622,3.1621,3.1621,3.1555,3.1553,3.1551,3.1549,3.1527,3.1528,3.1529,3.158,0,0,3.1532,3.1533,0,0,0,0,0,0,0,0,3.1623,3.1623,3.1613,3.161,3.1606,3.1589,3.1607,3.1607,3.1556,3.1574,3.155,3.1548,3.1549,3.1548,3.1549,3.1579,3.1578,3.1532,3.1533,3.1534,3.1534,0,0,0,0,0,0,0,3.1623,3.1624,3.1635,3.1613,3.1609,3.1592,3.1589,3.1607,3.1574,3.1572,3.1567,3.1565,3.1547,3.1548,3.1548,3.1578,3.1532,3.1533,3.1534,3.1534,3.1645,3.1647,0,0,0,0,0,0,3.1629,3.1624,3.1636,3.1634,3.1609,3.1594,3.159,3.1596,3.1574,3.1568,3.1567,3.1562,3.1547,3.1547,3.1547,3.1603,3.1534,3.1535,3.1535,3.1643,3.1646,3.1648,0,0,0,0,0,0,3.1629,3.163,3.1637,3.1628,3.1627,3.1596,3.1604,3.1597,3.1598,3.157,3.1564,3.1575,3.1546,3.1545,3.1572,3.1602,3.1535,3.1536,3.164,3.1644,3.1647,3.1717,0,0,0,0,0,0,3.1628,3.1631,3.165,3.1629,3.1628,3.1662,3.1606,3.1598,3.16,3.1594,3.1575,3.157,3.1544,3.157,3.1573,3.1602,3.1537,3.1637,3.1642,3.1646,3.1712,3.1723,3.1732,0,0,0,0,0,3.1628,3.1672,3.1652,3.1653,3.1652,3.1664,3.1664,3.1633,3.1603,3.1622,3.1604,3.1571,3.1598,3.1574,3.1576,3.1606,3.1635,3.164,3.1645,3.1708,3.1721,3.1732,0,0,0,0,0,0,3.1698,3.1668,3.1646,3.1684,3.1677,3.1653,3.1676,3.1648,3.1649,3.1643,3.1604,3.16,3.1631,3.1621,3.1594,3.1653,3.1611,3.1617,3.1658,3.167,3.168,3.1681,3.1538,0,0,0,0,0,3.1718,3.173,3.1704,3.174,3.1737,3.1708,3.1712,3.1688,3.1679,3.1676,3.166,3.1652,3.1659,3.1664,3.1669,3.1711,3.1705,3.1732,3.1742,3.175,3.1755,3.1774,3.1786,3.1665,3.1665,3.1665,0,0,3.1759,3.1744,3.1755,3.1753,3.1745,3.1758,3.1706,3.1722,3.1731,3.1679,3.1702,3.169,3.1678,3.1712,3.1726,3.1705,3.1787,3.1757,3.1764,3.1764,3.1781,3.1792,3.1802,3.1668,3.1668,3.1667,0,0,3.184,3.1831,3.1859,3.1851,3.1839,3.1819,3.1826,3.1806,3.1795,3.1818,3.1778,3.1788,3.1801,3.1794,3.1792,3.1869,3.1838,3.1872,3.1922,3.1941,3.1951,3.1959,3.1984,3.1994,3.1877,3.1877,3.1877,0,3.1892,3.191,3.1877,3.1895,3.1895,3.1848,3.1875,3.187,3.186,3.1861,3.1837,3.185,3.184,3.187,3.1889,3.189,3.1895,3.1873,3.1952,3.196,3.1967,3.1991,3.2001,3.1881,3.1881,3.188,3.188,0,3.1974,3.1987,3.2011,3.2002,3.2005,3.2028,3.1997,3.2004,3.198,3.1962,3.1984,3.197,3.1969,3.1975,3.1953,3.2002,3.1988,3.1959,3.1916,3.1983,3.2005,3.2013,3.1887,3.1885,3.1884,3.1883,0,0,3.2098,3.207,3.2079,3.2073,3.2056,3.2065,3.2085,3.2085,3.209,3.2085,3.21,3.2111,3.2083,3.2081,3.2057,3.2074,3.2133,3.2042,3.2041,3.2058,3.2184,3.2204,3.2216,3.2113,3.2115,3.2116,3.2184,0,3.2173,3.2206,3.2175,3.2213,3.2224,3.2179,3.2196,3.2187,3.217,3.2176,3.2158,3.2165,3.2129,3.2127,3.2142,3.2123,3.2157,3.2118,3.2125,3.2125,3.2127,3.2227,3.2249,3.2314,3.2192,3.2194,3.2195,0,3.2265,3.2263,3.2302,3.228,3.2283,3.23,3.2295,3.2303,3.2291,3.2277,3.2274,3.2245,3.2261,3.2221,3.2243,3.2216,3.2217,3.2208,3.221,3.2208,3.2163,3.2226,3.2334,3.2343,3.2208,3.2207,3.2206,0,3.2349,3.2356,3.2379,3.2376,3.2353,3.2364,3.2355,3.2341,3.2342,3.2339,3.2338,3.2338,3.2337,3.2336,3.2306,3.228,3.2331,3.2288,3.2319,3.2319,3.233,3.233,3.2439,3.2334,3.2334,3.2334,3.2334,0,3.2434,3.2459,3.2416,3.2431,3.2457,3.2422,3.2448,3.2434,3.2422,3.2432,3.2394,3.2404,3.2365,3.237,3.2348,3.2368,3.2368,3.2356,3.235,3.2359,3.236,3.2358,3.2352,3.2337,3.2336,3.2336,3.2335,0,3.2532,3.2504,3.2527,3.2502,3.2496,3.2516,3.2494,3.2506,3.2487,3.25,3.2501,3.247,3.2474,3.2445,3.2445,3.2429,3.2459,3.2446,3.2463,3.2458,3.2489,3.2486,3.2599,3.2611,3.2502,3.2503,3.2504,0,3.2587,3.2605,3.2582,3.2586,3.2578,3.2585,3.2585,3.2551,3.2553,3.254,3.2553,3.2554,3.2553,3.2562,3.2539,3.2538,3.2523,3.2563,3.2522,3.253,3.2521,3.2519,3.252,3.257,3.2572,3.2573,3.2574,0,3.2688,3.2673,3.2675,3.2672,3.2674,3.267,3.2664,3.2669,3.2631,3.2635,3.2639,3.2638,3.2637,3.2638,3.2632,3.2621,3.2591,3.2587,3.2593,3.2602,3.261,3.2604,3.2484,3.2584,3.2583,3.2582,3.2582,3.2581,3.2764,3.2777,3.2762,3.2765,3.2757,3.2751,3.276,3.2742,3.2744,3.274,3.272,3.2727,3.2713,3.2701,3.2694,3.2698,3.2679,3.2689,3.2691,3.2693,3.2698,3.2611,3.2697,3.2697,3.2696,3.2696,3.2696,0,3.2861,3.2848,3.2852,3.2843,3.2846,3.2817,3.2808,3.2812,3.2818,3.2808,3.2807,3.2811,3.2811,3.2788,3.2786,3.2793,3.2779,3.2794,3.2792,3.2789,3.2717,3.271,3.2805,3.2805,3.2805,3.2805,3.2805,3.2805,3.2911,3.2931,3.2914,3.2928,3.2916,3.2922,3.2919,3.2913,3.2905,3.291,3.291,3.2895,3.2879,3.2875,3.2873,3.2866,3.2866,3.2885,3.2873,3.2805,3.2795,3.2785,3.2778,3.2886,3.2886,3.2945,3.2946,3.2946]}]]